Location: Castiglione Fibocchi
(43.5333°N, 11.7667°E)
Time: 17:58:30
(UTC+00:00)

Atlas Centaur 2 - Pass Details

Date: 15 August 2020
Orbit: 459 x 1310 km, 30.4° (Epoch: 18 September)

Event Time Altitude Azimuth Distance (km) Brightness Sun altitude
Exits shadow 01:38:06 21° 153° (SSE) 2,007 3.9 -24.2°
Drops below altitude 10° 01:42:19 10° 118° (ESE) 2,903 5.1 -23.7°
Sets 01:45:59 0° 105° (ESE) 4,007 6.0 -23.3°
